TimeEDT,TemperatureF,Dew PointF,Humidity,Sea Level PressureIn,VisibilityMPH,Wind Direction,Wind SpeedMPH,Gust SpeedMPH,PrecipitationIn,Events,Conditions,WindDirDegrees,DateUTC
12:07 AM,69.8,69.8,100,29.60,9.0,Calm,Calm,-,N/A,,Clear,0,2013-07-24 04:07:00
12:39 AM,71.6,71.6,100,29.59,2.0,West,3.5,-,N/A,,Scattered Clouds,260,2013-07-24 04:39:00
12:42 AM,71.6,71.6,100,29.59,1.0,Calm,Calm,-,N/A,,Mist,0,2013-07-24 04:42:00
12:56 AM,71.1,71.1,100,29.62,1.0,Calm,Calm,-,N/A,,Mostly Cloudy,0,2013-07-24 04:56:00
1:02 AM,71.6,71.6,100,29.58,3.0,Calm,Calm,-,N/A,,Overcast,0,2013-07-24 05:02:00
1:43 AM,69.8,69.8,100,29.58,1.8,Calm,Calm,-,N/A,,Overcast,0,2013-07-24 05:43:00
1:54 AM,69.8,69.8,100,29.58,0.8,WSW,3.5,-,N/A,,Overcast,250,2013-07-24 05:54:00
1:56 AM,70.0,70.0,100,29.62,0.8,WSW,3.5,-,N/A,,Mist,250,2013-07-24 05:56:00
2:32 AM,69.8,69.8,100,29.58,1.0,Calm,Calm,-,N/A,,Overcast,0,2013-07-24 06:32:00
2:36 AM,69.8,69.8,100,29.58,0.8,Calm,Calm,-,N/A,,Mist,0,2013-07-24 06:36:00
2:56 AM,70.0,70.0,100,29.61,1.5,Calm,Calm,-,N/A,,Overcast,0,2013-07-24 06:56:00
3:01 AM,69.8,69.8,100,29.58,3.0,Calm,Calm,-,N/A,,Overcast,0,2013-07-24 07:01:00
3:12 AM,69.8,69.8,100,29.57,1.5,Calm,Calm,-,N/A,,Overcast,0,2013-07-24 07:12:00
3:21 AM,69.8,69.8,100,29.57,0.5,Calm,Calm,-,N/A,Fog,Fog,0,2013-07-24 07:21:00
3:28 AM,69.8,69.8,100,29.58,0.2,Calm,Calm,-,N/A,Fog,Fog,0,2013-07-24 07:28:00
3:36 AM,69.8,69.8,100,29.57,0.8,Calm,Calm,-,N/A,,Overcast,0,2013-07-24 07:36:00
3:40 AM,69.8,69.8,100,29.58,1.0,Calm,Calm,-,N/A,,Overcast,0,2013-07-24 07:40:00
3:47 AM,69.8,69.8,100,29.58,3.0,Calm,Calm,-,N/A,,Overcast,0,2013-07-24 07:47:00
3:56 AM,69.1,69.1,100,29.61,8.0,Calm,Calm,-,N/A,,Overcast,0,2013-07-24 07:56:00
4:56 AM,69.1,69.1,100,29.62,10.0,Calm,Calm,-,0.01,,Mostly Cloudy,0,2013-07-24 08:56:00
5:18 AM,69.8,69.8,100,29.59,9.0,Calm,Calm,-,N/A,,Overcast,0,2013-07-24 09:18:00
5:29 AM,69.8,69.8,100,29.59,1.8,Calm,Calm,-,N/A,,Mostly Cloudy,0,2013-07-24 09:29:00
5:44 AM,69.8,69.8,100,29.59,5.0,Calm,Calm,-,N/A,,Scattered Clouds,0,2013-07-24 09:44:00
5:56 AM,69.1,69.1,100,29.62,1.2,Calm,Calm,-,N/A,,Mostly Cloudy,0,2013-07-24 09:56:00
6:04 AM,69.8,69.8,100,29.59,0.2,Calm,Calm,-,N/A,Fog,Fog,0,2013-07-24 10:04:00
6:13 AM,69.8,69.8,100,29.59,0.5,Calm,Calm,-,N/A,Fog,Fog,0,2013-07-24 10:13:00
6:36 AM,69.8,69.8,100,29.60,1.8,Calm,Calm,-,N/A,,Mostly Cloudy,0,2013-07-24 10:36:00
6:41 AM,69.8,69.8,100,29.60,2.0,Calm,Calm,-,N/A,,Mostly Cloudy,0,2013-07-24 10:41:00
6:49 AM,71.6,71.6,100,29.60,9.0,Calm,Calm,-,N/A,,Mostly Cloudy,0,2013-07-24 10:49:00
6:56 AM,71.1,71.1,100,29.64,10.0,West,3.5,-,N/A,,Mostly Cloudy,270,2013-07-24 10:56:00
7:56 AM,75.0,72.0,90,29.65,10.0,West,3.5,-,N/A,,Clear,260,2013-07-24 11:56:00
8:56 AM,77.0,70.0,79,29.66,10.0,WSW,5.8,-,N/A,,Scattered Clouds,250,2013-07-24 12:56:00
9:56 AM,80.1,69.1,69,29.68,10.0,West,8.1,-,N/A,,Partly Cloudy,270,2013-07-24 13:56:00
10:56 AM,82.0,69.1,65,29.69,10.0,Variable,5.8,-,N/A,,Clear,0,2013-07-24 14:56:00
11:56 AM,82.0,66.0,58,29.71,10.0,WNW,11.5,-,N/A,,Scattered Clouds,290,2013-07-24 15:56:00
12:56 PM,84.0,66.0,55,29.72,10.0,West,8.1,17.3,N/A,,Mostly Cloudy,260,2013-07-24 16:56:00
1:56 PM,84.0,64.9,53,29.72,10.0,WNW,12.7,-,N/A,,Scattered Clouds,300,2013-07-24 17:56:00
2:56 PM,84.0,64.0,51,29.73,10.0,West,9.2,-,N/A,,Scattered Clouds,270,2013-07-24 18:56:00
3:56 PM,82.9,64.0,53,29.75,10.0,WNW,11.5,-,N/A,,Overcast,300,2013-07-24 19:56:00
4:56 PM,82.0,62.1,51,29.77,10.0,West,11.5,-,N/A,,Scattered Clouds,280,2013-07-24 20:56:00
5:56 PM,79.0,61.0,54,29.78,10.0,WNW,9.2,-,N/A,,Clear,300,2013-07-24 21:56:00
6:56 PM,78.1,62.1,58,29.81,10.0,NNW,4.6,-,N/A,,Scattered Clouds,330,2013-07-24 22:56:00
7:56 PM,73.9,64.0,71,29.84,10.0,NNW,3.5,-,N/A,,Clear,330,2013-07-24 23:56:00
8:56 PM,72.0,60.1,66,29.90,10.0,North,13.8,20.7,N/A,,Scattered Clouds,350,2013-07-25 00:56:00
9:56 PM,70.0,55.9,61,29.93,10.0,North,11.5,19.6,N/A,,Clear,360,2013-07-25 01:56:00
10:56 PM,66.9,55.0,66,29.96,10.0,NNW,10.4,-,N/A,,Clear,340,2013-07-25 02:56:00
11:56 PM,64.0,51.1,63,29.99,10.0,NNW,13.8,20.7,N/A,,Overcast,340,2013-07-25 03:56:00